Home   Weather   Leeds   Past weeks

Flag for United Kingdom Past Weather in Leeds, England, United Kingdom — Yesterday and Last 2 Weeks

Now
37 °F

Broken clouds.


Feels Like: 35 °F
Forecast: N/A
Wind: 3 mph from South

Location: Leeds And Bradford

Current Time: Jan 23, 2017 at 5:23:28 pm

Latest Report: Jan 23, 2017 at 4:20 pm


Visibility: 6 mi

Pressure: 30.27 "Hg

Humidity: 93%

Dew Point: 36 °F

Location of LeedsLocation

Past Weather in Leeds — Graph

°F

Leeds Temperature Yesterday

Maximum temperature yesterday: 36 °F (at 12:50 am)
Minimum temperature yesterday: 28 °F (at 6:50 am)
Average temperature yesterday: 33 °F

High & Low Weather Summary for the Past Weeks

 TemperatureHumidityPressure
High50 °F (Jan 11, 2:50 am)100% (Jan 8, 4:20 pm)30.63 "Hg (Jan 8, 4:20 pm)
Low28 °F (Jan 22, 6:50 am)70% (Jan 11, 9:50 pm)29.39 "Hg (Jan 12, 4:20 pm)
Average39 °F93%30.13 "Hg
* Reported Jan 8 3:20 pm — Jan 23 3:50 pm, Leeds, Weather by CustomWeather, © 2017

Note: Actual official high and low records may vary slightly from our data, if they occured in-between our weather recording intervals... More about our weather records

Advertising

Leeds Weather History for the Previous 24 Hours

Scroll right to see more
 ConditionsComfort  
Time TempWeatherWind HumidityBarometerVisibility
3:50 pm
Mon, Jan 23
37 °FScattered clouds.3 mph93%30.27 "Hg4 mi
3:20 pm39 °FScattered clouds.3 mph87%30.27 "Hg5 mi
2:50 pm39 °FPartly sunny.3 mph87%30.27 "Hg6 mi
2:20 pm39 °FPartly sunny.3 mph87%30.27 "HgN/A
1:50 pm39 °FPartly sunny.5 mph87%30.27 "HgN/A
1:20 pm39 °FPartly sunny.3 mph81%30.27 "HgN/A
12:50 pm37 °FPartly sunny.1 mph87%30.30 "HgN/A
12:20 pm37 °FFog.2 mph87%30.30 "HgN/A
11:50 am37 °FFog.3 mph87%30.30 "Hg6 mi
11:20 am37 °FFog.5 mph87%30.30 "Hg6 mi
10:50 am34 °FFog.7 mph93%30.30 "Hg6 mi
10:20 am34 °FFog.5 mph87%30.30 "HgN/A
9:50 am32 °FFog.5 mph93%30.30 "HgN/A
9:20 am30 °FScattered clouds.5 mph100%30.30 "HgN/A
8:50 am30 °FPartly sunny.7 mph100%30.30 "HgN/A
8:20 am28 °FLight fog.7 mph100%30.30 "Hg5 mi
7:50 am30 °FLight fog.7 mph93%30.30 "Hg3 mi
7:20 am28 °FClear.7 mph100%30.27 "Hg4 mi
6:50 am28 °FClear.8 mph100%30.27 "Hg4 mi
6:20 am28 °FClear.8 mph100%30.27 "Hg4 mi
5:50 am28 °FIce fog.8 mph100%30.27 "Hg2 mi
5:20 am28 °FIce fog.8 mph100%30.27 "Hg3 mi
4:50 am30 °FClear.7 mph100%30.27 "Hg4 mi
4:20 am30 °FIce fog.8 mph100%30.27 "Hg2 mi
3:50 am30 °FIce fog.8 mph100%30.27 "Hg2 mi
3:20 am30 °FIce fog.9 mph100%30.27 "Hg1 mi
2:50 am32 °FIce fog.7 mph100%30.27 "Hg3 mi
2:20 am34 °FPassing clouds.8 mph93%30.27 "Hg6 mi
1:50 am32 °FClear.8 mph100%30.30 "Hg4 mi
1:20 am32 °FIce fog.7 mph93%30.30 "Hg2 mi
12:50 am32 °FIce fog.8 mph93%30.27 "Hg2 mi
12:20 am32 °FIce fog.8 mph100%30.27 "Hg2 mi
11:50 pm
Sun, Jan 22
32 °FIce fog.8 mph100%30.30 "Hg2 mi
11:20 pm32 °FIce fog.8 mph100%30.30 "Hg3 mi
10:50 pm32 °FClear.7 mph100%30.30 "Hg4 mi
10:20 pm32 °FClear.10 mph100%30.27 "Hg4 mi
9:50 pm34 °FClear.9 mph93%30.27 "Hg4 mi
9:20 pm34 °FPassing clouds.10 mph100%30.27 "Hg4 mi
8:50 pm34 °FFog.9 mph100%30.27 "Hg2 mi
8:20 pm34 °FFog.8 mph100%30.27 "Hg2 mi
7:50 pm36 °FFog.5 mph93%30.27 "Hg2 mi
7:20 pm36 °FFog.3 mph93%30.27 "Hg2 mi
6:50 pm34 °FFog.5 mph100%30.27 "Hg2 mi
6:20 pm36 °FFog.6 mph93%30.27 "Hg2 mi
5:50 pm36 °FFog.7 mph93%30.24 "Hg2 mi
5:20 pm36 °FFog.7 mph93%30.24 "Hg2 mi
Weather by CustomWeather, © 2017

See weather overviewHow to use our weather pages